9A1W-1 Weather Reports


time (UTC)temp
F
wind
direction
speed
knots
gust
knots
rain 1hr
in
rain 24hr
in
rain mn
in
humidity
%
barometer
mb
20260906110522 73 229 0.0 5.2 0.00 0.00 0.00 100
20260906105022 73 132 0.0 3.5 0.00 0.00 0.00 100
20260906103522 73 104 2.6 7.0 0.00 0.00 0.00 100
20260906102022 73 108 0.0 6.1 0.00 0.00 0.00 100
20260906100522 73 95 1.7 6.1 0.00 0.00 0.00 100
20260906095022 73 262 1.7 4.3 0.00 0.00 0.00 100
20260906093522 73 234 1.7 7.0 0.00 0.00 0.00 100
20260906092023 72 223 0.9 6.1 0.00 0.00 0.00 100
20260906090522 72 164 3.5 6.1 0.00 0.00 0.00 100
20260906085022 72 279 2.6 3.5 0.00 0.00 0.00 100
20260906083522 71 11 0.9 3.5 0.00 0.00 0.00 100
20260906082022 71 147 2.6 4.3 0.00 0.00 0.00 100
20260906080522 70 357 1.7 7.0 0.00 0.00 0.00 100
20260906075022 70 344 2.6 4.3 0.00 0.00 0.00 100
20260906073523 69 223 0.9 7.0 0.00 0.00 0.00 100
20260906072023 68 53 7.8 14.8 0.00 0.00 0.00 100
20260906070522 67 229 0.9 6.1 0.00 0.00 0.00 100
20260906065022 67 156 8.7 8.7 0.00 0.00 0.00 100
20260906063522 66 191 2.6 4.3 0.00 0.00 0.00 100
20260906062022 64 352 0.0 1.7 0.00 0.00 0.00 100
20260906060523 63 99 0.9 4.3 0.00 0.00 0.00 100
20260906055023 63 220 0.0 2.6 0.00 0.00 0.00 100
20260906053523 62 61 0.0 5.2 0.00 0.00 0.00 100
20260906052023 62 337 0.9 6.1 0.00 0.00 0.00 100
20260906050523 62 149 0.0 4.3 0.00 0.00 0.00 100
20260906045023 62 180 0.0 2.6 0.00 0.00 0.00 100
20260906043523 62 232 0.0 5.2 0.00 0.00 0.00 100
20260906042023 61 265 0.0 2.6 0.00 0.00 0.00 100
20260906040523 61 215 0.0 0.0 0.00 0.00 0.00 100
20260906035023 61 22 0.0 2.6 0.00 0.00 0.00 100
20260906033523 62 84 0.0 5.2 0.00 0.00 0.00 100
20260906032023 62 184 1.7 6.1 0.00 0.00 0.00 100
20260906030523 62 330 0.9 0.9 0.00 0.00 0.00 100
20260906025105 62 156 0.9 6.1 0.00 0.00 0.00 100
20260906025023 62 156 0.9 6.1 0.00 0.00 0.00 100
20260906023523 63 123 4.3 7.0 0.00 0.00 0.00 100
20260906022023 63 126 2.6 7.8 0.00 0.00 0.00 100
20260906020523 63 142 2.6 6.1 0.00 0.00 0.00 100
20260906015023 63 119 1.7 3.5 0.00 0.00 0.00 100
20260906013523 63 165 2.6 6.1 0.00 0.00 0.00 100
20260906012023 63 172 1.7 3.5 0.00 0.00 0.00 100
20260906010523 63 115 0.0 2.6 0.00 0.00 0.00 100
20260906005023 64 71 0.9 3.5 0.00 0.00 0.00 100
20260906003523 64 175 0.0 3.5 0.00 0.00 0.00 100
20260906002023 64 118 0.9 4.3 0.00 0.00 0.00 100
20260906000524 64 125 0.9 3.5 0.00 0.00 0.00 100
20260905235023 64 67 1.7 1.7 0.00 0.00 0.00 100
20260905233523 64 109 0.9 4.3 0.00 0.00 0.00 100
20260905232023 65 116 0.0 1.7 0.00 0.00 0.00 100
20260905230523 65 57 0.0 0.0 0.00 0.00 0.00 100
20260905225023 65 133 0.0 1.7 0.00 0.00 0.00 100
20260905223523 66 80 0.0 0.0 0.00 0.00 0.00 100
20260905222023 66 80 0.0 1.7 0.00 0.00 0.00 100
20260905220523 66 61 0.9 3.5 0.00 0.00 0.00 100
20260905215024 67 81 1.7 4.3 0.00 0.00 0.00 100
20260905213524 67 45 0.0 0.0 0.00 0.00 0.00 100
20260905212024 67 77 0.9 2.6 0.00 0.00 0.00 100
20260905210524 68 111 0.0 0.0 0.00 0.00 0.00 100
20260905205024 68 90 2.6 4.3 0.00 0.00 0.00 100
20260905203524 67 80 0.0 0.9 0.00 0.00 0.00 100
20260905202024 67 153 0.0 2.6 0.00 0.00 0.00 100
20260905200524 67 118 0.0 1.7 0.00 0.00 0.00 100
20260905195024 67 7 0.0 0.9 0.00 0.00 0.00 100
20260905193524 67 90 0.0 0.0 0.00 0.00 0.00 100
20260905192024 68 102 0.0 2.6 0.00 0.00 0.00 100
20260905190524 68 60 2.6 3.5 0.00 0.00 0.00 100
20260905185024 68 52 0.0 0.9 0.00 0.00 0.00 100
20260905183524 67 68 0.0 1.7 0.00 0.00 0.00 100
20260905182024 68 88 0.0 0.0 0.00 0.00 0.00 100
20260905180524 68 88 0.0 0.0 0.00 0.00 0.00 100
20260905175024 68 88 0.0 1.7 0.00 0.00 0.00 100
20260905173648 68 84 1.7 1.7 0.00 0.00 0.00 100
20260905173524 68 84 1.7 1.7 0.00 0.00 0.00 100
20260905172024 68 77 0.9 2.6 0.00 0.00 0.00 100
20260905170524 69 112 3.5 5.2 0.00 0.00 0.00 100
20260905165024 70 75 6.1 7.8 0.00 0.00 0.00 100
20260905163524 70 73 6.1 7.8 0.00 0.00 0.00 100
20260905162024 70 57 2.6 6.1 0.00 0.00 0.00 100
20260905160525 70 80 4.3 8.7 0.00 0.00 0.00 100
20260905155024 71 74 4.3 9.6 0.00 0.00 0.00 100
20260905153524 71 85 5.2 12.2 0.00 0.00 0.00 100
20260905152024 71 84 5.2 8.7 0.00 0.00 0.00 100
20260905150524 71 82 7.0 11.3 0.00 0.00 0.00 100
20260905145024 71 61 6.1 11.3 0.00 0.00 0.00 100
20260905143524 73 70 7.0 10.4 0.00 0.00 0.00 100
20260905142024 72 39 4.3 11.3 0.00 0.00 0.00 100
20260905140607 72 37 12.2 13.0 0.00 0.00 0.00 100
20260905140524 72 37 12.2 13.0 0.00 0.00 0.00 100
20260905135138 73 81 8.7 10.4 0.00 0.00 0.00 100
20260905135024 73 81 8.7 10.4 0.00 0.00 0.00 100
20260905133559 74 25 6.1 11.3 0.00 0.00 0.00 100
20260905133524 74 25 6.1 11.3 0.00 0.00 0.00 100
20260905132024 75 7 7.8 10.4 0.00 0.00 0.00 100
20260905130524 75 80 4.3 12.2 0.00 0.00 0.00 100
20260905125024 75 56 5.2 11.3 0.00 0.00 0.00 100
20260905123524 76 60 5.2 10.4 0.00 0.00 0.00 100
20260905122025 74 73 5.2 11.3 0.00 0.00 0.00 100
20260905120525 73 71 7.0 13.0 0.00 0.00 0.00 100
20260905115025 73 146 7.0 11.3 0.00 0.00 0.00 100
20260905113525 71 73 7.0 13.0 0.00 0.00 0.00 100
20260905112025 71 75 8.7 13.0 0.00 0.00 0.00 100